﻿#,"Date Time, GMT+00:00","Temp, °C (LGR S/N: 10121460, SEN S/N: 10121460)","RH, % (LGR S/N: 10121460, SEN S/N: 10121460)","DewPt, °C (LGR S/N: 10121460, SEN S/N: 10121460)",Coupler Detached (LGR S/N: 10121460),Coupler Attached (LGR S/N: 10121460),Host Connected (LGR S/N: 10121460),End Of File (LGR S/N: 10121460)
1,3/29/2019 12:00,14.697,55.565,6.174,Logged,,,
2,3/29/2019 12:15,15.151,55.815,6.662,,,,
3,3/29/2019 12:30,15.843,52.465,6.433,,,,
4,3/29/2019 12:45,16.034,52.307,6.567,,,,
5,3/29/2019 13:00,15.724,52.97,6.458,,,,
6,3/29/2019 13:15,15.294,53.979,6.325,,,,
7,3/29/2019 13:30,15.652,54.184,6.712,,,,
8,3/29/2019 13:45,14.96,55.149,6.314,,,,
9,3/29/2019 14:00,15.151,55.42,6.562,,,,
10,3/29/2019 14:15,15.366,54.935,6.639,,,,
11,3/29/2019 14:30,15.581,53.287,6.409,,,,
12,3/29/2019 14:45,17.249,45.229,5.613,,,,
13,3/29/2019 15:00,17.558,46.844,6.398,,,,
14,3/29/2019 15:15,17.796,45.802,6.292,,,,
15,3/29/2019 15:30,16.487,50.33,6.439,,,,
16,3/29/2019 15:45,15.39,53.351,6.248,,,,
17,3/29/2019 16:00,14.984,55.334,6.384,,,,
18,3/29/2019 16:15,14.361,57.536,6.348,,,,
19,3/29/2019 16:30,14.218,58.055,6.339,,,,
20,3/29/2019 16:45,13.882,58.212,6.061,,,,
21,3/29/2019 17:00,13.69,59.078,6.085,,,,
22,3/29/2019 17:15,13.473,59.491,5.978,,,,
23,3/29/2019 17:30,13.305,59.702,5.868,,,,
24,3/29/2019 17:45,12.992,58.729,5.346,,,,
25,3/29/2019 18:00,12.509,59.069,4.97,,,,
26,3/29/2019 18:15,12.098,60.927,5.008,,,,
27,3/29/2019 18:30,11.783,62.754,5.114,,,,
28,3/29/2019 18:45,11.419,64.556,5.154,,,,
29,3/29/2019 19:00,11.029,66.825,5.251,,,,
30,3/29/2019 19:15,10.736,68.489,5.303,,,,
31,3/29/2019 19:30,10.418,69.936,5.279,,,,
32,3/29/2019 19:45,9.928,72.487,5.287,,,,
33,3/29/2019 20:00,9.509,74.463,5.24,,,,
34,3/29/2019 20:15,9.064,76.193,5.112,,,,
35,3/29/2019 20:30,8.717,77.979,5.079,,,,
36,3/29/2019 20:45,8.519,78.805,5.023,,,,
37,3/29/2019 21:00,8.17,79.864,4.856,,,,
38,3/29/2019 21:15,7.895,80.851,4.747,,,,
39,3/29/2019 21:30,7.72,81.507,4.679,,,,
40,3/29/2019 21:45,7.419,82.45,4.532,,,,
41,3/29/2019 22:00,7.142,83.181,4.374,,,,
42,3/29/2019 22:15,6.914,84.157,4.299,,,,
43,3/29/2019 22:30,6.889,84.623,4.345,,,,
44,3/29/2019 22:45,6.763,84.934,4.267,,,,
45,3/29/2019 23:00,6.56,85.357,4.13,,,,
46,3/29/2019 23:15,6.408,86.024,4.079,,,,
47,3/29/2019 23:30,6.331,86.473,4.069,,,,
48,3/29/2019 23:45,6.23,86.941,4.037,,,,
49,3/30/2019 0:00,6.153,87.207,4,,,,
50,3/30/2019 0:15,6.077,87.059,3.903,,,,
51,3/30/2019 0:30,6.102,87.168,3.944,,,,
52,3/30/2019 0:45,6,87.273,3.858,,,,
53,3/30/2019 1:00,5.898,87.454,3.783,,,,
54,3/30/2019 1:15,5.872,87.654,3.786,,,,
55,3/30/2019 1:30,5.745,87.674,3.663,,,,
56,3/30/2019 1:45,5.668,88.015,3.635,,,,
57,3/30/2019 2:00,5.539,88.445,3.569,,,,
58,3/30/2019 2:15,5.437,88.828,3.521,,,,
59,3/30/2019 2:30,5.205,89.128,3.334,,,,
60,3/30/2019 2:45,4.973,89.782,3.194,,,,
61,3/30/2019 3:00,4.688,90.57,3.019,,,,
62,3/30/2019 3:15,4.506,91.254,2.931,,,,
63,3/30/2019 3:30,4.324,92.085,2.861,,,,
64,3/30/2019 3:45,4.037,92.858,2.677,,,,
65,3/30/2019 4:00,4.037,93.554,2.767,,,,
66,3/30/2019 4:15,4.298,94.02,3.088,,,,
67,3/30/2019 4:30,4.089,94.409,2.93,,,,
68,3/30/2019 4:45,4.22,94.79,3.109,,,,
69,3/30/2019 5:00,4.141,95.064,3.066,,,,
70,3/30/2019 5:15,4.141,95.335,3.1,,,,
71,3/30/2019 5:30,4.037,95.405,3.004,,,,
72,3/30/2019 5:45,4.194,95.668,3.195,,,,
73,3/30/2019 6:00,3.985,95.66,2.984,,,,
74,3/30/2019 6:15,3.932,95.989,2.973,,,,
75,3/30/2019 6:30,4.037,96.116,3.094,,,,
76,3/30/2019 6:45,4.089,96.106,3.145,,,,
77,3/30/2019 7:00,4.298,96.187,3.364,,,,
78,3/30/2019 7:15,4.532,96.154,3.594,,,,
79,3/30/2019 7:30,4.792,95.979,3.832,,,,
80,3/30/2019 7:45,5.102,95.719,4.11,,,,
81,3/30/2019 8:00,5.719,95.343,4.678,,,,
82,3/30/2019 8:15,6,94.326,4.827,,,,
83,3/30/2019 8:30,6.179,93.072,4.84,,,,
84,3/30/2019 8:45,6.281,91.333,4.706,,,,
85,3/30/2019 9:00,6.94,89.204,5.065,,,,
86,3/30/2019 9:15,7.116,87.131,4.941,,,,
87,3/30/2019 9:30,7.745,84.667,5.195,,,,
88,3/30/2019 9:45,7.92,83.229,5.146,,,,
89,3/30/2019 10:00,7.945,81.771,4.942,,,,
90,3/30/2019 10:15,8.618,79.936,5.306,,,,
91,3/30/2019 10:30,9.361,77.188,5.572,,,,
92,3/30/2019 10:45,9.46,75.752,5.42,,,,
93,3/30/2019 11:00,9.632,75.264,5.501,,,,
94,3/30/2019 11:15,9.879,73.176,5.365,,,,
95,3/30/2019 11:30,11.151,70.784,6.148,,,,
96,3/30/2019 11:45,11.856,68.039,6.288,,,,
97,3/30/2019 12:00,13.112,67.522,7.388,,,,
98,3/30/2019 12:15,12.001,68.496,6.519,,,,
99,3/30/2019 12:30,11.977,68.72,6.541,,,,
100,3/30/2019 12:45,12.727,67.451,7.004,,,,
101,3/30/2019 13:00,13.233,65.689,7.124,,,,
102,3/30/2019 13:15,13.112,65.522,6.973,,,,
103,3/30/2019 13:30,13.161,65.851,7.089,,,,
104,3/30/2019 13:45,12.05,69.106,6.687,,,,
105,3/30/2019 14:00,11.929,69.54,6.656,,,,
106,3/30/2019 14:15,12.219,68.536,6.737,,,,
107,3/30/2019 14:30,12.437,67.629,6.763,,,,
108,3/30/2019 14:45,13.497,66.637,7.575,,,,
109,3/30/2019 15:00,13.064,66.617,7.156,,,,
110,3/30/2019 15:15,13.112,65.202,6.906,,,,
111,3/30/2019 15:30,13.618,64.093,7.15,,,,
112,3/30/2019 15:45,13.137,64.944,6.874,,,,
113,3/30/2019 16:00,12.703,64.431,6.351,,,,
114,3/30/2019 16:15,12.654,65.005,6.427,,,,
115,3/30/2019 16:30,12.461,65.262,6.297,,,,
116,3/30/2019 16:45,12.292,65.638,6.214,,,,
117,3/30/2019 17:00,12.437,65.345,6.291,,,,
118,3/30/2019 17:15,12.534,65.478,6.411,,,,
119,3/30/2019 17:30,12.413,65.718,6.346,,,,
120,3/30/2019 17:45,11.977,67.314,6.258,,,,
121,3/30/2019 18:00,11.224,70.939,6.248,,,,
122,3/30/2019 18:15,10.956,72.691,6.319,,,,
123,3/30/2019 18:30,10.834,73.479,6.346,,,,
124,3/30/2019 18:45,10.565,74.29,6.233,,,,
125,3/30/2019 19:00,10.296,75.373,6.165,,,,
126,3/30/2019 19:15,10.271,76.114,6.272,,,,
127,3/30/2019 19:30,9.41,80.354,6.15,,,,
128,3/30/2019 19:45,9.064,82.827,6.209,,,,
129,3/30/2019 20:00,8.792,84.094,6.138,,,,
130,3/30/2019 20:15,8.717,84.632,6.148,,,,
131,3/30/2019 20:30,8.767,84.829,6.227,,,,
132,3/30/2019 20:45,8.742,84.955,6.222,,,,
133,3/30/2019 21:00,8.717,85.24,6.241,,,,
134,3/30/2019 21:15,8.593,85.447,6.15,,,,
135,3/30/2019 21:30,8.419,85.826,6.035,,,,
136,3/30/2019 21:45,8.295,86.426,6.002,,,,
137,3/30/2019 22:00,8.095,87.135,5.91,,,,
138,3/30/2019 22:15,7.77,88.121,5.732,,,,
139,3/30/2019 22:30,7.544,89.253,5.671,,,,
140,3/30/2019 22:45,7.393,90.011,5.629,,,,
141,3/30/2019 23:00,7.142,90.638,5.466,,,,
142,3/30/2019 23:15,7.066,91.077,5.452,,,,
143,3/30/2019 23:30,7.041,91.173,5.44,,,,
144,3/30/2019 23:45,7.192,90.88,5.55,,,,
145,3/31/2019 0:00,7.167,89.954,5.396,,,,
146,3/31/2019 0:15,7.217,86.636,4.969,,,,
147,3/31/2019 0:30,7.041,84.028,4.404,,,,
148,3/31/2019 0:45,6.94,84.635,4.397,,,,
149,3/31/2019 1:00,6.965,83.457,4.242,,,,
150,3/31/2019 1:15,6.99,80.621,3.823,,,,
151,3/31/2019 1:30,7.015,76.799,3.221,,,,
152,3/31/2019 1:45,6.94,76.293,3.061,,,,
153,3/31/2019 2:00,7.015,75.818,3.054,,,,
154,3/31/2019 2:15,7.242,75.045,3.142,,,,
155,3/31/2019 2:30,7.116,75.73,3.137,,,,
156,3/31/2019 2:45,7.015,76.989,3.253,,,,
157,3/31/2019 3:00,6.889,78.505,3.382,,,,
158,3/31/2019 3:15,6.864,79.897,3.584,,,,
159,3/31/2019 3:30,6.813,80.421,3.618,,,,
160,3/31/2019 3:45,6.914,80.524,3.734,,,,
161,3/31/2019 4:00,6.864,80.646,3.704,,,,
162,3/31/2019 4:15,6.763,81.104,3.677,,,,
163,3/31/2019 4:30,6.585,81.808,3.614,,,,
164,3/31/2019 4:45,6.408,82.8,3.593,,,,
165,3/31/2019 5:00,6.306,83.804,3.647,,,,
166,3/31/2019 5:15,6.153,84.92,3.664,,,,
167,3/31/2019 5:30,6,85.822,3.647,,,,
168,3/31/2019 5:45,5.975,86.283,3.689,,,,
169,3/31/2019 6:00,5.924,86.763,3.709,,,,
170,3/31/2019 6:15,5.949,87.26,3.806,,,,
171,3/31/2019 6:30,6.026,87.485,3.914,,,,
172,3/31/2019 6:45,6.051,87.543,3.947,,,,
173,3/31/2019 7:00,6.306,87.554,4.201,,,,
174,3/31/2019 7:15,6.611,86.8,4.393,,,,
175,3/31/2019 7:30,6.889,84.571,4.337,,,,
176,3/31/2019 7:45,7.368,79.848,4.069,,,,
177,3/31/2019 8:00,7.72,75.966,3.764,,,,
178,3/31/2019 8:15,7.745,75.039,3.628,,,,
179,3/31/2019 8:30,7.87,72.718,3.338,,,,
180,3/31/2019 8:45,8.195,71.306,3.394,,,,
181,3/31/2019 9:00,8.394,69.578,3.263,,,,
182,3/31/2019 9:15,8.319,67.414,2.773,,,,
183,3/31/2019 9:30,8.866,67.259,3.266,,,,
184,3/31/2019 9:45,9.015,65.629,3.082,,,,
185,3/31/2019 10:00,9.558,61.822,2.799,,,,
186,3/31/2019 10:15,10.345,55.692,2.131,,,,
187,3/31/2019 10:30,10.271,57.2,2.424,,,,
188,3/31/2019 10:45,10.394,54.081,1.779,,,,
189,3/31/2019 11:00,10.761,52.052,1.602,,,,
190,3/31/2019 11:15,10.712,52.438,1.657,,,,
191,3/31/2019 11:30,10.907,53.524,2.117,,,,
192,3/31/2019 11:45,10.59,54.651,2.104,,,,
193,3/31/2019 12:00,10.638,55.467,2.352,,,,
194,3/31/2019 12:15,10.541,53.711,1.823,,,,
195,3/31/2019 12:30,10.516,53.015,1.623,,,,
196,3/31/2019 12:45,10.565,51.872,1.373,,,,
197,3/31/2019 13:00,10.785,52.328,1.696,,,,
198,3/31/2019 13:15,10.638,51.761,1.412,,,,
199,3/31/2019 13:30,10.736,51.745,1.499,,,,
200,3/31/2019 13:45,10.492,51.923,1.318,,,,
201,3/31/2019 14:00,10.492,52.104,1.365,,,,
202,3/31/2019 14:15,10.687,51.556,1.403,,,,
203,3/31/2019 14:30,10.443,51.461,1.151,,,,
204,3/31/2019 14:45,10.418,51.275,1.08,,,,
205,3/31/2019 15:00,10.663,50.762,1.17,,,,
206,3/31/2019 15:15,10.418,50.82,0.959,,,,
207,3/31/2019 15:30,10.394,50.543,0.862,,,,
208,3/31/2019 15:45,10.492,49.458,0.658,,,,
209,3/31/2019 16:00,10.198,51.911,1.042,,,,
210,3/31/2019 16:15,9.829,54.538,1.366,,,,
211,3/31/2019 16:30,9.829,54.298,1.306,,,,
212,3/31/2019 16:45,9.485,55.77,1.344,,,,
213,3/31/2019 17:00,9.312,55.416,1.097,,,,
214,3/31/2019 17:15,9.064,55.379,0.856,,,,
215,3/31/2019 17:30,9.015,54.566,0.611,,,,
216,3/31/2019 17:45,8.792,56.437,0.854,,,,
217,3/31/2019 18:00,8.543,58.053,0.997,,,,
218,3/31/2019 18:15,8.22,59.205,0.954,,,,
219,3/31/2019 18:30,8.045,59.966,0.959,,,,
220,3/31/2019 18:45,7.67,62.603,1.173,,,,
221,3/31/2019 19:00,7.192,64.76,1.164,,,,
222,3/31/2019 19:15,6.99,65.551,1.131,,,,
223,3/31/2019 19:30,6.965,66.768,1.348,,,,
224,3/31/2019 19:45,6.458,69.628,1.409,,,,
225,3/31/2019 20:00,6.357,70.027,1.385,,,,
226,3/31/2019 20:15,6.204,71.083,1.432,,,,
227,3/31/2019 20:30,6.102,71.701,1.446,,,,
228,3/31/2019 20:45,5.847,72.396,1.323,,,,
229,3/31/2019 21:00,5.616,73.285,1.257,,,,
230,3/31/2019 21:15,5.616,73.202,1.243,,,,
231,3/31/2019 21:30,5.591,73.362,1.246,,,,
232,3/31/2019 21:45,5.282,74.475,1.14,,,,
233,3/31/2019 22:00,5.05,75.379,1.069,,,,
234,3/31/2019 22:15,5.205,75.927,1.312,,,,
235,3/31/2019 22:30,5.076,76.414,1.268,,,,
236,3/31/2019 22:45,5.154,76.457,1.35,,,,
237,3/31/2019 23:00,5.205,76.414,1.393,,,,
238,3/31/2019 23:15,5.36,76.149,1.499,,,,
239,3/31/2019 23:30,5.128,76.452,1.324,,,,
240,3/31/2019 23:45,5.102,77.013,1.392,,,,
241,4/1/2019 0:00,4.688,77.462,1.062,,,,
242,4/1/2019 0:15,4.688,78.988,1.309,,,,
243,4/1/2019 0:30,4.584,79.179,1.238,,,,
244,4/1/2019 0:45,4.558,79.333,1.237,,,,
245,4/1/2019 1:00,4.61,79.451,1.307,,,,
246,4/1/2019 1:15,4.558,79.253,1.225,,,,
247,4/1/2019 1:30,4.454,79.576,1.174,,,,
248,4/1/2019 1:45,4.48,79.635,1.209,,,,
249,4/1/2019 2:00,4.61,79.929,1.383,,,,
250,4/1/2019 2:15,4.584,80.083,1.381,,,,
251,4/1/2019 2:30,4.558,79.599,1.28,,,,
252,4/1/2019 2:45,4.61,78.918,1.222,,,,
253,4/1/2019 3:00,4.662,79.249,1.326,,,,
254,4/1/2019 3:15,4.714,79.154,1.361,,,,
255,4/1/2019 3:30,4.766,78.578,1.319,,,,
256,4/1/2019 3:45,4.818,77.141,1.136,,,,
257,4/1/2019 4:00,4.792,76.866,1.066,,,,
258,4/1/2019 4:15,4.688,76.682,0.934,,,,
259,4/1/2019 4:30,4.714,76.256,0.889,,,,
260,4/1/2019 4:45,4.688,75.33,0.708,,,,
261,4/1/2019 5:00,4.61,74.418,0.478,,,,
262,4/1/2019 5:15,4.61,73.846,0.379,,,,
263,4/1/2019 5:30,4.714,73.457,0.413,,,,
264,4/1/2019 5:45,4.61,73.6,0.337,,,,
265,4/1/2019 6:00,4.61,74.064,0.417,,,,
266,4/1/2019 6:15,4.636,73.796,0.396,,,,
267,4/1/2019 6:30,4.714,73.512,0.422,,,,
268,4/1/2019 6:45,4.688,73.315,0.363,,,,
269,4/1/2019 7:00,4.921,72.952,0.525,,,,
270,4/1/2019 7:15,5.024,72.863,0.61,,,,
271,4/1/2019 7:30,5.36,72.188,0.815,,,,
272,4/1/2019 7:45,5.488,71.966,0.9,,,,
273,4/1/2019 8:00,5.924,70.889,1.126,,,,
274,4/1/2019 8:15,6.204,70.416,1.31,,,,
275,4/1/2019 8:30,6.509,69.638,1.459,,,,
276,4/1/2019 8:45,6.56,69.256,1.437,,,,
277,4/1/2019 9:00,6.661,68.236,1.341,,,,
278,4/1/2019 9:15,7.393,68.965,2.183,,,,
279,4/1/2019 9:30,7.242,69.61,2.16,,,,
280,4/1/2019 9:45,7.67,68.849,2.427,,,,
281,4/1/2019 10:00,8.045,68.072,2.638,,,,
282,4/1/2019 10:15,7.845,67.865,2.406,,,,
283,4/1/2019 10:30,7.895,68.609,2.597,,,,
284,4/1/2019 10:45,8.419,66.579,2.703,,,,
285,4/1/2019 11:00,8.494,66.222,2.703,,,,
286,4/1/2019 11:15,8.965,64.961,2.898,,,,
287,4/1/2019 11:30,8.841,64.306,2.645,,,,
288,4/1/2019 11:45,9.287,64.067,3.019,,,,
289,4/1/2019 12:00,9.928,62.991,3.402,,,,
290,4/1/2019 12:15,10.736,60.467,3.616,,,,
291,4/1/2019 12:30,10.296,61.713,3.475,,,,
292,4/1/2019 12:45,10.345,60.314,3.211,,,,
293,4/1/2019 13:00,10.687,60.547,3.587,,,,
294,4/1/2019 13:15,10.883,60.432,3.746,,,,
295,4/1/2019 13:30,10.858,60.251,3.683,,,,
296,4/1/2019 13:45,10.712,61.461,3.814,,,,
297,4/1/2019 14:00,10.98,60.536,3.862,,,,
298,4/1/2019 14:15,11.37,59.952,4.098,,,,
299,4/1/2019 14:30,11.589,58.06,3.867,,,,
300,4/1/2019 14:45,12.389,56.572,4.261,,,,
301,4/1/2019 15:00,12.389,55.581,4.018,,,,
302,4/1/2019 15:15,12.509,56.71,4.409,,,,
303,4/1/2019 15:30,12.582,54.585,3.949,,,,
304,4/1/2019 15:45,12.147,56.265,3.96,,,,
305,4/1/2019 16:00,12.074,56.524,3.955,,,,
306,4/1/2019 16:15,12.025,56.367,3.871,,,,
307,4/1/2019 16:30,12.074,56.104,3.852,,,,
308,4/1/2019 16:45,11.904,56.947,3.898,,,,
309,4/1/2019 17:00,11.977,57.316,4.055,,,,
310,4/1/2019 17:15,11.88,57.779,4.074,,,,
311,4/1/2019 17:30,11.71,58.555,4.097,,,,
312,4/1/2019 17:45,11.467,59.702,4.133,,,,
313,4/1/2019 18:00,11.37,60.512,4.225,,,,
314,4/1/2019 18:15,11.102,61.76,4.25,,,,
315,4/1/2019 18:30,10.932,63.046,4.368,,,,
316,4/1/2019 18:45,10.638,63.81,4.253,,,,
317,4/1/2019 19:00,10.492,64.712,4.303,,,,
318,4/1/2019 19:15,10.222,65.99,4.309,,,,
319,4/1/2019 19:30,9.854,67.584,4.278,,,,
320,4/1/2019 19:45,9.632,68.766,4.297,,,,
321,4/1/2019 20:00,9.485,69.39,4.276,,,,
322,4/1/2019 20:15,9.139,70.705,4.193,,,,
323,4/1/2019 20:30,8.891,72.56,4.298,,,,
324,4/1/2019 20:45,8.742,74.169,4.443,,,,
325,4/1/2019 21:00,8.593,74.718,4.396,,,,
326,4/1/2019 21:15,8.245,75.582,4.209,,,,
327,4/1/2019 21:30,8.02,76.548,4.156,,,,
328,4/1/2019 21:45,7.945,77.432,4.233,,,,
329,4/1/2019 22:00,7.795,78.296,4.231,,,,
330,4/1/2019 22:15,7.67,78.972,4.221,,,,
331,4/1/2019 22:30,7.368,79.498,4.012,,,,
332,4/1/2019 22:45,7.217,80.217,3.981,,,,
333,4/1/2019 23:00,7.167,80.447,3.968,,,,
334,4/1/2019 23:15,7.217,80.806,4.075,,,,
335,4/1/2019 23:30,7.066,80.718,3.913,,,,
336,4/1/2019 23:45,6.965,80.883,3.84,,,,
337,4/2/2019 0:00,6.914,81.085,3.823,,,,
338,4/2/2019 0:15,6.914,81.085,3.823,,,,
339,4/2/2019 0:30,7.091,80.964,3.977,,,,
340,4/2/2019 0:45,7.116,80.275,3.891,,,,
341,4/2/2019 1:00,7.041,80.312,3.823,,,,
342,4/2/2019 1:15,7.217,79.841,3.92,,,,
343,4/2/2019 1:30,7.167,79.615,3.834,,,,
344,4/2/2019 1:45,7.142,79.986,3.87,,,,
345,4/2/2019 2:00,7.242,79.659,3.915,,,,
346,4/2/2019 2:15,7.343,78.684,3.855,,,,
347,4/2/2019 2:30,7.268,78.749,3.791,,,,
348,4/2/2019 2:45,7.318,78.787,3.847,,,,
349,4/2/2019 3:00,7.318,78.76,3.842,,,,
350,4/2/2019 3:15,7.066,79.996,3.797,,,,
351,4/2/2019 3:30,6.914,80.123,3.669,,,,
352,4/2/2019 3:45,6.763,79.794,3.468,,,,
353,4/2/2019 4:00,5.847,83.434,3.139,,,,
354,4/2/2019 4:15,5.642,85.736,3.281,,,,
355,4/2/2019 4:30,5.488,87.096,3.326,,,,
356,4/2/2019 4:45,5.282,88.125,3.269,,,,
357,4/2/2019 5:00,5.128,89.057,3.247,,,,
358,4/2/2019 5:15,4.973,89.908,3.211,,,,
359,4/2/2019 5:30,4.921,90.174,3.197,,,,
360,4/2/2019 5:45,4.869,90.338,3.168,,,,
361,4/2/2019 6:00,4.921,90.604,3.255,,,,
362,4/2/2019 6:15,4.895,90.674,3.239,,,,
363,4/2/2019 6:30,4.999,90.675,3.342,,,,
364,4/2/2019 6:45,5.205,90.475,3.52,,,,
365,4/2/2019 7:00,5.488,89.785,3.706,,,,
366,4/2/2019 7:15,5.462,88.988,3.569,,,,
367,4/2/2019 7:30,5.591,88.304,3.6,,,,
368,4/2/2019 7:45,6.026,87.485,3.914,,,,
369,4/2/2019 8:00,6.331,86.862,4.126,,,,
370,4/2/2019 8:15,6.23,86.033,3.904,,,,
371,4/2/2019 8:30,6.382,85.393,3.96,,,,
372,4/2/2019 8:45,6.331,85.172,3.877,,,,
373,4/2/2019 9:00,6.281,84.375,3.708,,,,
374,4/2/2019 9:15,6,84.361,3.43,,,,
375,4/2/2019 9:30,5.872,85.661,3.497,,,,
376,4/2/2019 9:45,5.821,86.35,3.547,,,,
377,4/2/2019 10:00,6.255,85.414,3.838,,,,
378,4/2/2019 10:15,6.535,81.85,3.571,,,,
379,4/2/2019 10:30,6.839,79.65,3.519,,,,
380,4/2/2019 10:45,6.889,78.262,3.342,,,,
381,4/2/2019 11:00,7.142,73.208,2.721,,,,
382,4/2/2019 11:15,7.444,70.405,2.503,,,,
383,4/2/2019 11:30,7.393,70.256,2.426,,,,
384,4/2/2019 11:45,7.569,67.899,2.148,,,,
385,4/2/2019 12:00,7.72,66.651,2.048,,,,
386,4/2/2019 12:15,8.22,63.16,1.813,,,,
387,4/2/2019 12:30,8.717,62.551,2.158,,,,
388,4/2/2019 12:45,7.97,64.698,1.894,,,,
389,4/2/2019 13:00,7.242,71.843,2.573,,,,
390,4/2/2019 13:15,8.817,63.638,2.482,,,,
391,4/2/2019 13:30,8.643,59.86,1.5,,,,
392,4/2/2019 13:45,9.139,57.586,1.45,,,,
393,4/2/2019 14:00,8.618,61.664,1.873,,,,
394,4/2/2019 14:15,8.444,62.215,1.826,,,,
395,4/2/2019 14:30,8.519,57.754,0.905,,,,
396,4/2/2019 14:45,9.386,57.566,1.678,,,,
397,4/2/2019 15:00,9.952,54.556,1.485,,,,
398,4/2/2019 15:15,10.736,53.046,1.836,,,,
399,4/2/2019 15:30,10.1,52.653,1.143,,,,
400,4/2/2019 15:45,9.163,53.51,0.488,,,,
401,4/2/2019 16:00,8.519,56.039,0.503,,,,
402,4/2/2019 16:15,7.97,61.438,1.209,,,,
403,4/2/2019 16:30,7.67,62.863,1.227,,,,
404,4/2/2019 16:45,8.02,61.185,1.202,,,,
405,4/2/2019 17:00,8.095,57.481,0.443,,,,
406,4/2/2019 17:15,8.02,56.466,0.136,,,,
407,4/2/2019 17:30,7.594,60.62,0.676,,,,
408,4/2/2019 17:45,7.066,64.509,0.993,,,,
409,4/2/2019 18:00,6.636,67.217,1.12,,,,
410,4/2/2019 18:15,6.458,68.057,1.112,,,,
411,4/2/2019 18:30,6.306,68.394,1.03,,,,
412,4/2/2019 18:45,6.281,68.558,1.036,,,,
413,4/2/2019 19:00,6.153,68.506,0.904,,,,
414,4/2/2019 19:15,6.204,68.206,0.896,,,,
415,4/2/2019 19:30,6.23,68.716,1.017,,,,
416,4/2/2019 19:45,5.924,70.166,0.993,,,,
417,4/2/2019 20:00,5.437,71.707,0.804,,,,
418,4/2/2019 20:15,5.437,72.148,0.882,,,,
419,4/2/2019 20:30,5.437,71.928,0.843,,,,
420,4/2/2019 20:45,5.257,72.36,0.746,,,,
421,4/2/2019 21:00,5.024,73.165,0.663,,,,
422,4/2/2019 21:15,4.844,73.784,0.595,,,,
423,4/2/2019 21:30,4.766,74.368,0.62,,,,
424,4/2/2019 21:45,4.74,75.016,0.705,,,,
425,4/2/2019 22:00,4.792,75.46,0.831,,,,
426,4/2/2019 22:15,4.532,76.028,0.674,,,,
427,4/2/2019 22:30,4.298,77.029,0.611,,,,
428,4/2/2019 22:45,4.141,78.681,0.726,,,,
429,4/2/2019 23:00,4.141,79.054,0.785,,,,
430,4/2/2019 23:15,4.011,79.689,0.758,,,,
431,4/2/2019 23:30,3.906,80.513,0.784,,,,
432,4/2/2019 23:45,3.749,81.399,0.767,,,,
433,4/3/2019 0:00,3.512,82.237,0.662,,,,
434,4/3/2019 0:15,3.327,83.263,0.634,,,,
435,4/3/2019 0:30,3.274,83.77,0.657,,,,
436,4/3/2019 0:45,3.142,84.205,0.591,,,,
437,4/3/2019 1:00,3.089,84.219,0.541,,,,
438,4/3/2019 1:15,2.877,84.298,0.343,,,,
439,4/3/2019 1:30,2.77,84.737,0.302,,,,
440,4/3/2019 1:45,2.61,84.956,0.176,,,,
441,4/3/2019 2:00,2.45,85.174,0.049,,,,
442,4/3/2019 2:15,2.557,85.226,0.162,,,,
443,4/3/2019 2:30,2.45,85.174,0.049,,,,
444,4/3/2019 2:45,2.209,85.68,-0.117,,,,
445,4/3/2019 3:00,2.021,86.12,-0.24,,,,
446,4/3/2019 3:15,2.047,86.228,-0.198,,,,
447,4/3/2019 3:30,1.805,86.144,-0.45,,,,
448,4/3/2019 3:45,1.697,86.524,-0.503,,,,
449,4/3/2019 4:00,1.832,86.939,-0.312,,,,
450,4/3/2019 4:15,1.697,87.235,-0.405,,,,
451,4/3/2019 4:30,1.643,87.424,-0.432,,,,
452,4/3/2019 4:45,1.724,87.672,-0.317,,,,
453,4/3/2019 5:00,1.751,87.907,-0.258,,,,
454,4/3/2019 5:15,1.751,87.957,-0.252,,,,
455,4/3/2019 5:30,1.615,88.075,-0.369,,,,
456,4/3/2019 5:45,1.643,88.233,-0.321,,,,
457,4/3/2019 6:00,1.643,88.258,-0.318,,,,
458,4/3/2019 6:15,1.994,88.22,0.025,,,,
459,4/3/2019 6:30,2.182,87.711,0.141,,,,
460,4/3/2019 6:45,2.37,87.174,0.253,,,,
461,4/3/2019 7:00,2.93,86.111,0.657,,,,
462,4/3/2019 7:15,3.459,84.643,0.967,,,,
463,4/3/2019 7:30,3.958,83.359,1.269,,,,
464,4/3/2019 7:45,4.272,81.913,1.359,,,,
465,4/3/2019 8:00,4.714,79.873,1.475,,,,
466,4/3/2019 8:15,4.818,78.91,1.423,,,,
467,4/3/2019 8:30,5.308,78.134,1.777,,,,
468,4/3/2019 8:45,5.539,76.296,1.699,,,,
469,4/3/2019 9:00,5.488,75.28,1.477,,,,
470,4/3/2019 9:15,5.821,76.111,1.942,,,,
471,4/3/2019 9:30,5.591,75.03,1.534,,,,
472,4/3/2019 9:45,5.821,74.45,1.659,,,,
473,4/3/2019 10:00,6,73.747,1.71,,,,
474,4/3/2019 10:15,6.357,72.056,1.756,,,,
475,4/3/2019 10:30,6.382,71.174,1.62,,,,
476,4/3/2019 10:45,6.408,70.455,1.513,,,,
477,4/3/2019 11:00,6.357,69.441,1.276,,,,
478,4/3/2019 11:15,5.975,72.725,1.505,,,,
479,4/3/2019 11:30,6.864,71.741,2.189,,,,
480,4/3/2019 11:45,7.015,69.427,1.907,,,,
481,4/3/2019 12:00,6.99,69.141,1.829,,,,
482,4/3/2019 12:15,6.914,69.855,1.89,,,,
483,4/3/2019 12:30,7.645,67.799,2.201,,,,
484,4/3/2019 12:45,7.895,66.484,2.182,,,,
485,4/3/2019 13:00,7.72,66.651,2.048,,,,
486,4/3/2019 13:15,7.745,65.63,1.868,,,,
487,4/3/2019 13:30,7.895,65.314,1.948,,,,
488,4/3/2019 13:45,7.444,69.059,2.25,,,,
489,4/3/2019 14:00,7.945,67.629,2.456,,,,
490,4/3/2019 14:15,8.965,63.549,2.605,,,,
491,4/3/2019 14:30,9.213,61.473,2.395,,,,
492,4/3/2019 14:45,9.04,58.721,1.618,,,,
493,4/3/2019 15:00,8.543,61.069,1.673,,,,
494,4/3/2019 15:15,8.693,60.598,1.711,,,,
495,4/3/2019 15:30,9.163,57.235,1.391,,,,
496,4/3/2019 15:45,8.568,60.023,1.466,,,,
497,4/3/2019 16:00,8.916,59.933,1.775,,,,
498,4/3/2019 16:15,8.99,60.502,1.971,,,,
499,4/3/2019 16:30,9.287,62.155,2.614,,,,
500,4/3/2019 16:45,9.312,57.495,1.591,,,,
501,4/3/2019 17:00,6.484,73.791,2.187,,,,
502,4/3/2019 17:15,6.408,76.289,2.543,,,,
503,4/3/2019 17:30,6.763,76.256,2.883,,,,
504,4/3/2019 17:45,6.585,76.436,2.741,,,,
505,4/3/2019 18:00,7.167,73.682,2.83,,,,
506,4/3/2019 18:15,7.041,72.967,2.58,,,,
507,4/3/2019 18:30,6.433,75.86,2.495,,,,
508,4/3/2019 18:45,6.509,79.068,3.102,,,,
509,4/3/2019 19:00,6.077,80.123,2.849,,,,
510,4/3/2019 19:15,5.949,82.034,3.024,,,,
511,4/3/2019 19:30,5.642,83.386,2.93,,,,
512,4/3/2019 19:45,6.051,83.639,3.371,,,,
513,4/3/2019 20:00,5.898,82.128,2.989,,,,
514,4/3/2019 20:15,5.821,81.316,2.787,,,,
515,4/3/2019 20:30,5.898,82.313,3.017,,,,
516,4/3/2019 20:45,5.719,82.457,2.864,,,,
517,4/3/2019 21:00,5.437,83.076,2.681,,,,
518,4/3/2019 21:15,5.282,84.296,2.713,,,,
519,4/3/2019 21:30,5.154,85.151,2.713,,,,
520,4/3/2019 21:45,5.179,85.573,2.8,,,,
521,4/3/2019 22:00,5.179,83.802,2.537,,,,
522,4/3/2019 22:15,4.869,84.042,2.268,,,,
523,4/3/2019 22:30,4.74,84.533,2.214,,,,
524,4/3/2019 22:45,4.584,84.34,2.032,,,,
525,4/3/2019 23:00,4.506,84.893,2.036,,,,
526,4/3/2019 23:15,4.454,85.399,2.059,,,,
527,4/3/2019 23:30,4.61,85.747,2.264,,,,
528,4/3/2019 23:45,4.272,86.541,2.044,,,,
529,4/4/2019 0:00,4.35,86.817,2.161,,,,
530,4/4/2019 0:15,4.35,87.458,2.252,,,,
531,4/4/2019 0:30,4.22,87.145,2.079,,,,
532,4/4/2019 0:45,4.141,87.688,2.078,,,,
533,4/4/2019 1:00,4.376,87.874,2.337,,,,
534,4/4/2019 1:15,4.298,88.238,2.31,,,,
535,4/4/2019 1:30,4.194,88.543,2.249,,,,
536,4/4/2019 1:45,4.037,88.885,2.142,,,,
537,4/4/2019 2:00,4.141,89.444,2.322,,,,
538,4/4/2019 2:15,4.037,89.392,2.211,,,,
539,4/4/2019 2:30,3.801,89.737,2.025,,,,
540,4/4/2019 2:45,3.643,90.252,1.938,,,,
541,4/4/2019 3:00,3.801,90.443,2.121,,,,
542,4/4/2019 3:15,3.696,90.668,2.047,,,,
543,4/4/2019 3:30,3.67,90.762,2.033,,,,
544,4/4/2019 3:45,3.67,90.862,2.046,,,,
545,4/4/2019 4:00,3.485,90.865,1.864,,,,
546,4/4/2019 4:15,3.459,90.958,1.85,,,,
547,4/4/2019 4:30,3.459,91.084,1.867,,,,
548,4/4/2019 4:45,3.248,91.154,1.666,,,,
549,4/4/2019 5:00,3.433,91.152,1.85,,,,
550,4/4/2019 5:15,3.564,91.186,1.985,,,,
551,4/4/2019 5:30,3.722,91.227,2.148,,,,
552,4/4/2019 5:45,3.827,90.802,2.195,,,,
553,4/4/2019 6:00,3.958,90.03,2.221,,,,
554,4/4/2019 6:15,3.906,89.461,2.091,,,,